User: anonymous   Login
Location: Plymouth
(43.7570°N, 71.6890°W)
Time: 15:48:45
(UTC-04:00)
Language:

COSMOS 2406 - Orbit

View from above orbital plane
View from above orbital plane
View from above satellite
View from above satellite

Ground track
Ground track

The orbit data is extracted from the following two-line orbital elements,

1 28352U 04021A   15242.52834970  .00000317  00000-0  20082-3 0  9995
2 28352 071.0011 055.5488 0014764 002.1345 056.7813 14.11414277578196
Epoch (UTC): 30 August 2015 12:40:49
Eccentricity: 0.0014764
inclination: 71.0011°
perigee height: 844 km
apogee height: 865 km
right ascension of ascending node: 55.5488°
argument of perigee: 2.1345°
revolutions per day: 14.11414277
mean anomaly at epoch: 56.7813°
orbit number at epoch: 57819

The dashed part of the orbit path shows where the satellite is in the earth's shadow,  

DLR